Back to catalog

FENGYUN 1C DEB

AliveSSO
NORAD 30708·DEBRIS·🇨🇳 China

Launched May 10, 1999 from Taiyuan Satellite Launch Center

Loading…

Next Passes (next 24 hours)

TLE

FreshSource: Space-Track

Epoch: Sep 13, 2026, 23:33 UTC

1 30708U 99025ARS 26256.98192266  .00000129  00000-0  93197-4 0  9992
2 30708  98.6836 267.1363 0009145 132.2853 258.7676 14.12320234  6785

Track FENGYUN 1C DEB in real time with AllMySat

Download on the App Store